Weather History for 78073 - October, 2013

Change the Weather History Date:

Friday, October 25, 2013

  Actual Average Record
Temperature  
Mean Temperature 81 °F -  
Max Temperature 85 °F 82 °F - ()
Min Temperature 77 °F 69 °F - ()
Cooling Degree Days 16    
Growing Degree Days 31 (Base 50)    
Moisture  
Dew Point 69 °F    
Average Humidity 68    
Maximum Humidity 79    
Minimum Humidity 56    
Precipitation  
Precipitation 0.00 in 0.10 in - ()
Sea Level Pressure  
Sea Level Pressure 30.06 in    
Wind  
Wind Speed 8 mph ()    
Max Wind Speed 14 mph    
Max Gust Speed 26 mph    
Visibility 7.0 miles    
Events      
T = Trace of Precipitation, MM = Missing Value Source: Averaged Metar Reports

Daily Weather History Graph

Daily Weather History Graph

Search for Another Location

Airport or City:

Trip Planner

Search our weather history database for the weather conditions in past years. The results will help you decide how hot, cold, wet, or windy it might be!

Date:

Astronomy

Oct. 25, 2013 Rise Set
Actual Time 7:13 AM EDT 6:34 PM EDT
Civil Twilight 6:50 AM EDT 6:57 PM EDT
Nautical Twilight 6:23 AM EDT 7:24 PM EDT
Astronomical Twilight 5:56 AM EDT 7:50 PM EDT
Moon 11:59 PM EDT (10/25) 12:42 PM EDT (10/25)
Length of Visible Light 12h 07m
Length of Day
11h 20m
Waning Gibbous, 62% of the Moon is Illuminated
Oct 25
Waning Gibbous
Oct 26
Last Quarter
Nov 3
New
Nov 10
First Quarter
Nov 17
Full

Hourly Weather History & Observations

Time (EDT) Temp. Heat Index Dew Point Humidity Pressure Visibility Wind Dir Wind Speed Gust Speed Precip Events Conditions
12:00 AM 77.0 °F - 68.0 °F 74% 30.04 in 6.2 mi ENE 6.9 mph - N/A   Scattered Clouds
1:00 AM 77.0 °F - 68.0 °F 74% 30.03 in - NE 6.9 mph - N/A   Scattered Clouds
2:00 AM 78 °F - 70 °F 69% 30.03 in 9 mi ENE 5.8 mph - -   Partly Cloudy
2:00 AM 77.0 °F - 69.8 °F 78% 30.03 in 6.2 mi ENE 5.8 mph - N/A   Scattered Clouds
5:00 AM 79 °F - 71 °F 69% 30.03 in 9 mi NNE 8.1 mph - -   Partly Cloudy
5:00 AM 78.8 °F - 71.6 °F 78% 30.02 in 6.2 mi NNE 8.1 mph - N/A   Scattered Clouds
6:00 AM 78.8 °F - 68.0 °F 69% 30.04 in 6.2 mi ENE 5.8 mph - N/A   Scattered Clouds
7:00 AM 78.8 °F - 66.2 °F 65% 30.06 in 6.2 mi NE 8.1 mph - N/A   Mostly Cloudy
8:00 AM 80 °F - 71 °F 66% 30.06 in 9 mi North 6.9 mph - -   Mostly Cloudy
8:00 AM 80.6 °F 83.2 °F 68.0 °F 65% 30.06 in 6.2 mi North 9.2 mph - N/A   Mostly Cloudy
10:00 AM 80.6 °F 83.9 °F 69.8 °F 70% 30.07 in 6.2 mi North 11.5 mph - N/A   Mostly Cloudy
11:00 AM 82 °F - 69 °F 56% 30.06 in 8 mi NNE 9.2 mph - -   Partly Cloudy
11:00 AM 82.4 °F 88.2 °F 73.4 °F 74% 30.07 in 6.2 mi North 12.7 mph - N/A   Mostly Cloudy
12:00 PM 80.6 °F 82.7 °F 66.2 °F 61% 30.09 in 6.2 mi North 9.2 mph - N/A   Mostly Cloudy
1:00 PM 80.6 °F 83.9 °F 69.8 °F 70% 30.09 in 6.2 mi NNE 11.5 mph - N/A   Mostly Cloudy
2:00 PM 82 °F - 72 °F 66% 30.07 in 9 mi NNE 11.5 mph - -   Scattered Clouds
2:00 PM 82.4 °F 88.2 °F 73.4 °F 74% 30.07 in 6.2 mi NNE 11.5 mph - N/A   Mostly Cloudy
3:00 PM 80.6 °F 83.2 °F 68.0 °F 65% 30.04 in 6.2 mi NNE 10.4 mph - N/A   Mostly Cloudy
4:00 PM 82.4 °F 85.4 °F 68.0 °F 62% 30.03 in 6.2 mi NE 11.5 mph - N/A   Mostly Cloudy
5:00 PM 81 °F - 73 °F 71% 30.06 in 9 mi NNE 13.8 mph - -   Mostly Cloudy
5:00 PM 80.6 °F 85.4 °F 73.4 °F 79% 30.05 in 6.2 mi NNE 13.8 mph - N/A   Mostly Cloudy
6:00 PM 80.6 °F 83.2 °F 68.0 °F 65% 30.05 in 6.2 mi NNE 12.7 mph - N/A   Mostly Cloudy
8:00 PM 81 °F - 70 °F 62% 30.07 in 9 mi NE 13.8 mph - -   Mostly Cloudy
8:00 PM 80.6 °F 83.9 °F 69.8 °F 70% 30.07 in 6.2 mi NE 13.8 mph - N/A   Mostly Cloudy
9:00 PM 78.8 °F - 66.2 °F 65% 30.06 in 6.2 mi NNE 13.8 mph - N/A   Scattered Clouds
10:00 PM 78.8 °F - 64.4 °F 61% 30.08 in 6.2 mi NNE 13.8 mph - N/A   Partly Cloudy
11:00 PM 79 °F - 68 °F 60% 30.10 in 8 mi NE 13.8 mph - -   Partly Cloudy
11:00 PM 78.8 °F - 68.0 °F 69% 30.09 in 6.2 mi NE 13.8 mph 26.5 mph N/A   Mostly Cloudy